Radiation Dose at Monitoring Post of Fukushima Daini Nuclear Power Station
Date,Time,MP-1(microSv/h),MP-2(microSv/h),MP-3(microSv/h),MP-4(microSv/h),MP-5(microSv/h),MP-6(microSv/h),MP-7(microSv/h),Wind Direction,Wind Velocity(m/s),Rain
2020/08/12,00:00,0.178,0.162,0.268,0.253,0.251,0.139,0.085,northwest,1.9,No
2020/08/12,00:10,0.180,0.161,0.266,0.256,0.252,0.140,0.085,northwest,2.6,No
2020/08/12,00:20,0.179,0.164,0.265,0.257,0.247,0.141,0.085,west-northwest,2.1,No
2020/08/12,00:30,0.177,0.163,0.266,0.255,0.247,0.140,0.086,west,2.8,No
2020/08/12,00:40,0.178,0.162,0.270,0.253,0.246,0.137,0.085,west,2.7,No
2020/08/12,00:50,0.180,0.163,0.268,0.252,0.247,0.139,0.085,west,2.8,No
2020/08/12,01:00,0.178,0.163,0.265,0.255,0.251,0.139,0.084,west,1.6,No
2020/08/12,01:10,0.176,0.164,0.265,0.256,0.251,0.139,0.085,west,1.6,No
2020/08/12,01:20,0.176,0.164,0.265,0.255,0.248,0.139,0.085,-,CALM,No
2020/08/12,01:30,0.180,0.160,0.268,0.254,0.247,0.138,0.085,east-southeast,0.7,No
2020/08/12,01:40,0.180,0.162,0.267,0.252,0.247,0.139,0.085,north-northeast,1.0,No
2020/08/12,01:50,0.178,0.163,0.266,0.256,0.251,0.140,0.085,north,1.1,No
2020/08/12,02:00,0.177,0.164,0.265,0.257,0.253,0.139,0.086,north,2.6,No
2020/08/12,02:10,0.179,0.162,0.269,0.255,0.250,0.139,0.085,north-northwest,3.4,No
2020/08/12,02:20,0.179,0.163,0.268,0.254,0.247,0.140,0.085,north-northwest,3.5,No
2020/08/12,02:30,0.177,0.163,0.267,0.256,0.248,0.140,0.085,north-northwest,2.9,No
2020/08/12,02:40,0.178,0.162,0.265,0.257,0.252,0.139,0.085,northwest,2.8,No
2020/08/12,02:50,0.180,0.163,0.269,0.256,0.252,0.139,0.084,north-northwest,2.2,No
2020/08/12,03:00,0.179,0.164,0.268,0.253,0.250,0.140,0.086,north-northwest,2.7,No
2020/08/12,03:10,0.177,0.162,0.266,0.254,0.248,0.140,0.085,north-northwest,1.1,No
2020/08/12,03:20,0.179,0.162,0.266,0.256,0.249,0.139,0.085,north-northwest,1.3,No
2020/08/12,03:30,0.180,0.162,0.269,0.256,0.252,0.139,0.085,north-northwest,1.2,No
2020/08/12,03:40,0.179,0.164,0.269,0.255,0.251,0.140,0.086,northwest,0.8,No
2020/08/12,03:50,0.178,0.163,0.268,0.254,0.251,0.140,0.086,north,2.2,No
2020/08/12,04:00,0.178,0.161,0.265,0.257,0.249,0.139,0.085,north-northeast,3.0,No
2020/08/12,04:10,0.178,0.162,0.268,0.256,0.248,0.138,0.085,north-northeast,3.3,No
2020/08/12,04:20,0.177,0.163,0.269,0.253,0.251,0.139,0.085,north-northeast,3.7,No
2020/08/12,04:30,0.176,0.162,0.267,0.253,0.251,0.140,0.086,north,4.3,No
2020/08/12,04:40,0.179,0.161,0.266,0.256,0.249,0.139,0.084,north-northwest,4.1,No
2020/08/12,04:50,0.179,0.163,0.269,0.257,0.248,0.140,0.086,north-northwest,3.4,No
2020/08/12,05:00,0.178,0.163,0.268,0.254,0.252,0.141,0.086,north,1.6,No
2020/08/12,05:10,0.178,0.162,0.267,0.252,0.251,0.140,0.084,north-northeast,0.9,No
2020/08/12,05:20,0.179,0.162,0.265,0.257,0.249,0.139,0.085,north,1.7,No
2020/08/12,05:30,0.179,0.164,0.270,0.258,0.247,0.140,0.085,-,CALM,No
2020/08/12,05:40,0.177,0.162,0.268,0.254,0.250,0.140,0.086,north,1.3,No
2020/08/12,05:50,0.179,0.162,0.266,0.253,0.251,0.140,0.086,north,0.6,No
2020/08/12,06:00,0.179,0.163,0.264,0.256,0.251,0.139,0.085,north,0.9,No
2020/08/12,06:10,0.178,0.164,0.267,0.256,0.248,0.139,0.085,north,1.2,No
2020/08/12,06:20,0.177,0.164,0.269,0.254,0.247,0.140,0.085,north,1.0,No
2020/08/12,06:30,0.177,0.163,0.267,0.254,0.247,0.139,0.085,north-northwest,0.9,No
2020/08/12,06:40,0.180,0.161,0.266,0.252,0.247,0.138,0.085,north,1.0,No
2020/08/12,06:50,0.179,0.161,0.265,0.252,0.251,0.138,0.085,north-northwest,2.2,No
2020/08/12,07:00,0.177,0.161,0.265,0.256,0.252,0.139,0.085,north-northwest,2.3,No
2020/08/12,07:10,0.177,0.161,0.265,0.256,0.250,0.139,0.084,north,2.7,No
2020/08/12,07:20,0.176,0.163,0.265,0.254,0.249,0.140,0.085,north,2.7,No
2020/08/12,07:30,0.177,0.162,0.269,0.253,0.247,0.140,0.084,north,3.5,No
2020/08/12,07:40,0.179,0.162,0.268,0.253,0.248,0.138,0.084,north,2.5,No
2020/08/12,07:50,0.178,0.162,0.267,0.252,0.248,0.138,0.084,north-northwest,2.1,No
2020/08/12,08:00,0.177,0.162,0.267,0.253,0.249,0.138,0.084,north-northwest,2.0,No
2020/08/12,08:10,0.177,0.162,0.266,0.253,0.248,0.139,0.085,north-northwest,2.9,No
2020/08/12,08:20,0.176,0.161,0.266,0.254,0.248,0.139,0.085,north-northwest,2.2,No
2020/08/12,08:30,0.176,0.162,0.266,0.254,0.249,0.139,0.085,north-northeast,1.5,No
2020/08/12,08:40,0.176,0.162,0.266,0.254,0.250,0.139,0.084,northeast,2.0,No
2020/08/12,08:50,0.176,0.161,0.265,0.254,0.249,0.139,0.085,northeast,2.7,No
2020/08/12,09:00,0.178,0.162,0.266,0.255,0.249,0.139,0.084,east-northeast,2.3,No
2020/08/12,09:10,0.178,0.162,0.267,0.253,0.249,0.139,0.084,northeast,2.0,No
2020/08/12,09:20,0.177,0.162,0.267,0.254,0.249,0.138,0.084,northeast,1.6,No
2020/08/12,09:30,0.177,0.162,0.266,0.254,0.249,0.139,0.084,northeast,1.8,No
2020/08/12,09:40,0.177,0.163,0.265,0.253,0.248,0.139,0.084,north-northeast,1.8,No
2020/08/12,09:50,0.177,0.161,0.265,0.252,0.247,0.138,0.084,north-northeast,0.9,No
2020/08/12,10:00,0.177,0.161,0.265,0.253,0.247,0.139,0.084,northeast,1.7,No
2020/08/12,10:10,0.177,0.161,0.266,0.254,0.248,0.138,0.084,northeast,0.7,No
2020/08/12,10:20,0.178,0.161,0.265,0.254,0.248,0.139,0.085,east-northeast,0.8,No
2020/08/12,10:30,0.177,0.162,0.265,0.253,0.248,0.139,0.085,north-northeast,0.7,No
2020/08/12,10:40,0.177,0.162,0.265,0.255,0.247,0.138,0.085,-,CALM,Yes
2020/08/12,10:50,0.176,0.162,0.266,0.254,0.247,0.138,0.084,south-southeast,1.1,No
2020/08/12,11:00,0.177,0.162,0.267,0.253,0.247,0.139,0.085,south-southeast,1.7,Yes
2020/08/12,11:10,0.177,0.162,0.265,0.253,0.247,0.138,0.084,southeast,1.7,No
2020/08/12,11:20,0.176,0.163,0.266,0.253,0.247,0.138,0.085,south-southeast,2.3,Yes
2020/08/12,11:30,0.177,0.162,0.265,0.254,0.248,0.138,0.085,south-southeast,1.6,Yes
2020/08/12,11:40,0.177,0.162,0.265,0.254,0.249,0.139,0.084,south,1.1,Yes
2020/08/12,11:50,0.176,0.163,0.266,0.254,0.248,0.138,0.085,south-southeast,1.5,No
2020/08/12,12:00,0.177,0.161,0.265,0.254,0.248,0.138,0.084,south-southeast,1.9,No
2020/08/12,12:10,0.176,0.162,0.266,0.253,0.248,0.138,0.085,south-southeast,2.2,No
2020/08/12,12:20,0.177,0.163,0.268,0.255,0.249,0.137,0.084,south-southeast,1.8,No
2020/08/12,12:30,0.177,0.162,0.267,0.254,0.249,0.138,0.084,east-southeast,3.5,No
2020/08/12,12:40,0.177,0.163,0.268,0.255,0.250,0.139,0.084,southeast,1.6,No
2020/08/12,12:50,0.178,0.163,0.267,0.254,0.249,0.139,0.085,-,CALM,No
2020/08/12,13:00,0.178,0.163,0.268,0.254,0.250,0.139,0.085,east,2.2,No
2020/08/12,13:10,0.179,0.163,0.268,0.255,0.249,0.138,0.085,east-southeast,0.8,No
2020/08/12,13:20,0.178,0.163,0.270,0.254,0.250,0.139,0.085,south-southeast,1.2,No
2020/08/12,13:30,0.178,0.163,0.268,0.256,0.249,0.139,0.084,southeast,3.1,No
2020/08/12,13:40,0.178,0.162,0.267,0.253,0.248,0.138,0.085,south,3.2,No
2020/08/12,13:50,0.177,0.162,0.265,0.253,0.248,0.138,0.085,south,3.0,No
2020/08/12,14:00,0.178,0.162,0.266,0.253,0.248,0.138,0.084,south-southeast,2.9,No
2020/08/12,14:10,0.176,0.162,0.264,0.252,0.247,0.138,0.084,south-southeast,3.9,No
2020/08/12,14:20,0.177,0.162,0.265,0.252,0.248,0.138,0.083,south-southeast,4.2,No
2020/08/12,14:30,0.177,0.161,0.264,0.254,0.247,0.139,0.084,south,4.5,No
2020/08/12,14:40,0.177,0.161,0.266,0.253,0.247,0.139,0.084,south,4.4,No
2020/08/12,14:50,0.177,0.162,0.265,0.255,0.246,0.138,0.084,south,4.7,No
2020/08/12,15:00,0.177,0.162,0.266,0.253,0.246,0.138,0.084,south,3.6,No
2020/08/12,15:10,0.177,0.162,0.266,0.254,0.247,0.139,0.084,south-southwest,3.8,No
2020/08/12,15:20,0.176,0.162,0.267,0.253,0.248,0.137,0.084,south,2.9,No
2020/08/12,15:30,0.177,0.161,0.266,0.254,0.248,0.137,0.084,south,3.5,No
2020/08/12,15:40,0.177,0.162,0.267,0.254,0.249,0.139,0.084,south,3.3,No
2020/08/12,15:50,0.178,0.162,0.267,0.253,0.249,0.139,0.084,south-southwest,3.3,No
2020/08/12,16:00,0.177,0.162,0.266,0.254,0.249,0.139,0.084,south,2.9,No
2020/08/12,16:10,0.177,0.163,0.267,0.254,0.250,0.139,0.084,south,3.8,No
2020/08/12,16:20,0.178,0.162,0.267,0.254,0.249,0.139,0.083,south,4.5,No
2020/08/12,16:30,0.178,0.163,0.267,0.254,0.250,0.138,0.084,south-southeast,5.5,No
2020/08/12,16:40,0.178,0.162,0.265,0.254,0.248,0.139,0.083,south-southeast,4.6,No
2020/08/12,16:50,0.178,0.162,0.267,0.253,0.249,0.139,0.084,south-southeast,5.5,No
2020/08/12,17:00,0.176,0.162,0.266,0.254,0.250,0.138,0.084,south-southeast,4.0,No
2020/08/12,17:10,0.176,0.162,0.266,0.254,0.249,0.138,0.084,south-southeast,3.1,No
2020/08/12,17:20,0.177,0.161,0.264,0.254,0.248,0.139,0.084,south,2.6,No
2020/08/12,17:30,0.176,0.161,0.266,0.253,0.249,0.138,0.085,south,2.2,No
2020/08/12,17:40,0.177,0.162,0.266,0.254,0.248,0.139,0.085,south-southwest,1.8,No
2020/08/12,17:50,0.177,0.161,0.265,0.254,0.247,0.138,0.084,southwest,1.7,No
2020/08/12,18:00,0.176,0.161,0.265,0.252,0.247,0.138,0.085,west-southwest,1.6,No
2020/08/12,18:10,0.178,0.161,0.266,0.252,0.248,0.138,0.083,west-southwest,2.1,No
2020/08/12,18:20,0.179,0.160,0.266,0.256,0.248,0.139,0.083,southwest,2.7,No
2020/08/12,18:30,0.179,0.161,0.265,0.257,0.246,0.140,0.084,southwest,2.4,No
2020/08/12,18:40,0.176,0.162,0.265,0.256,0.247,0.140,0.085,west,2.3,No
2020/08/12,18:50,0.176,0.163,0.268,0.255,0.247,0.137,0.085,west-northwest,3.5,No
2020/08/12,19:00,0.177,0.163,0.269,0.252,0.247,0.137,0.084,west-northwest,3.3,No
2020/08/12,19:10,0.178,0.161,0.268,0.254,0.249,0.140,0.083,west-northwest,2.6,No
2020/08/12,19:20,0.178,0.160,0.267,0.258,0.252,0.139,0.084,west,2.2,No
2020/08/12,19:30,0.176,0.163,0.265,0.257,0.249,0.139,0.085,south-southwest,1.5,No
2020/08/12,19:40,0.178,0.162,0.267,0.255,0.248,0.138,0.084,south-southwest,2.0,No
2020/08/12,19:50,0.178,0.163,0.269,0.253,0.247,0.139,0.085,south-southwest,4.0,No
2020/08/12,20:00,0.180,0.162,0.269,0.254,0.246,0.140,0.084,southwest,2.8,No
2020/08/12,20:10,0.179,0.161,0.266,0.257,0.250,0.139,0.084,south-southwest,3.4,No
2020/08/12,20:20,0.178,0.163,0.264,0.255,0.251,0.139,0.084,south-southwest,3.0,No
2020/08/12,20:30,0.176,0.164,0.266,0.255,0.250,0.138,0.085,south-southwest,2.5,No
2020/08/12,20:40,0.179,0.162,0.269,0.254,0.247,0.140,0.084,southwest,2.4,No
2020/08/12,20:50,0.181,0.161,0.268,0.254,0.247,0.140,0.084,southwest,2.1,No
2020/08/12,21:00,0.178,0.162,0.266,0.256,0.247,0.139,0.084,southwest,3.5,No
2020/08/12,21:10,0.177,0.164,0.265,0.256,0.248,0.138,0.084,southwest,4.1,No
2020/08/12,21:20,0.177,0.162,0.265,0.254,0.251,0.138,0.085,southwest,3.6,No
2020/08/12,21:30,0.180,0.163,0.267,0.254,0.251,0.140,0.084,southwest,3.9,No
2020/08/12,21:40,0.179,0.161,0.270,0.252,0.248,0.139,0.084,southwest,4.0,No
2020/08/12,21:50,0.177,0.162,0.268,0.256,0.248,0.139,0.083,southwest,3.2,No
2020/08/12,22:00,0.178,0.163,0.267,0.257,0.247,0.138,0.085,southwest,2.3,No
2020/08/12,22:10,0.176,0.162,0.265,0.256,0.246,0.139,0.085,south-southwest,2.2,No
2020/08/12,22:20,0.178,0.162,0.265,0.253,0.246,0.140,0.084,southwest,3.5,No
2020/08/12,22:30,0.179,0.162,0.264,0.253,0.249,0.139,0.085,south-southwest,3.5,No
2020/08/12,22:40,0.179,0.163,0.270,0.254,0.252,0.138,0.084,south-southwest,3.1,No
2020/08/12,22:50,0.176,0.163,0.270,0.257,0.249,0.139,0.084,south-southwest,3.2,No
2020/08/12,23:00,0.177,0.163,0.267,0.257,0.248,0.140,0.085,southwest,3.9,No
2020/08/12,23:10,0.178,0.162,0.267,0.255,0.247,0.139,0.085,south-southwest,3.2,No
2020/08/12,23:20,0.180,0.161,0.266,0.253,0.247,0.139,0.085,southwest,4.0,No
2020/08/12,23:30,0.179,0.162,0.265,0.253,0.247,0.139,0.085,south-southwest,3.4,No
2020/08/12,23:40,0.178,0.163,0.268,0.255,0.249,0.139,0.084,south-southwest,3.3,No
2020/08/12,23:50,0.177,0.164,0.268,0.258,0.252,0.139,0.086,southwest,2.6,No
